Location: Sternwarte ZA, Rosenfeld-Brittheim
(48.2889°N, 8.6789°E)
Time: 12:18:12
(UTC+01:00)

ISS - Pass Details

Date: 20 January 2021
Orbit: 418 x 419 km, 51.6° (Epoch: 20 January)

Event Time Altitude Azimuth Distance (km) Brightness Sun altitude
Rises 18:39:21 0° 216° (SW) 2,352 0.9 -15.2°
Reaches altitude 10° 18:41:36 10° 205° (SSW) 1,493 -0.5 -15.6°
Maximum altitude 18:44:33 29° 143° (SE) 807 -2.6 -16.1°
Enters shadow 18:45:00 27° 128° (SE) 831 -2.6 -16.1°
